Weather History for KEQY - January, 2014

Change the Weather History Date:

Saturday, January 18, 2014

  Actual Average (KCLT) Record (KCLT)
Temperature  
Mean Temperature 34 °F 40 °F  
Max Temperature 41 °F 51 °F 71 °F (1937)
Min Temperature 28 °F 29 °F 10 °F (2003)
Degree Days  
Heating Degree Days 30 25  
Month to date heating degree days 450  
Since 1 July heating degree days 1787  
Cooling Degree Days 0 0  
Month to date cooling degree days 0  
Year to date cooling degree days 0  
Moisture  
Dew Point 14 °F    
Average Humidity 45    
Maximum Humidity 59    
Minimum Humidity 33    
Precipitation  
Precipitation 0.00 in 0.11 in 2.51 in (1943)
Month to date precipitation 2.02  
Year to date precipitation 2.02  
Snow  
Snow 0.00 in 0.10 in 3.50 in (1893)
Month to date snowfall 1.2  
Since 1 July snowfall 1.6  
Snow Depth -    
Sea Level Pressure  
Sea Level Pressure 30.06 in    
Wind  
Wind Speed 7 mph (West)    
Max Wind Speed 14 mph    
Max Gust Speed 20 mph    
Visibility 10 miles    
Events      
T = Trace of Precipitation, MM = Missing Value Source: NWS Daily Summary

Daily Weather History Graph

Daily Weather History Graph

Search for Another Location

Airport or City:

Trip Planner

Search our weather history database for the weather conditions in past years. The results will help you decide how hot, cold, wet, or windy it might be!

Date:

Astronomy

Jan. 18, 2014 Rise Set
Actual Time 7:29 AM EST 5:37 PM EST
Civil Twilight 7:01 AM EST 6:04 PM EST
Nautical Twilight 6:30 AM EST 6:35 PM EST
Astronomical Twilight 6:00 AM EST 7:05 PM EST
Moon 8:09 PM EST (1/18) 8:35 AM EST (1/18)
Length of Visible Light 11h 02m
Length of Day
10h 07m
Waning Gibbous, 94% of the Moon is Illuminated
Jan 18
Waning Gibbous
Jan 24
Last Quarter
Jan 30
New
Feb 6
First Quarter
Feb 14
Full

Hourly Weather History & Observations

Time (EST) Temp. Windchill Dew Point Humidity Pressure Visibility Wind Dir Wind Speed Gust Speed Precip Events Conditions
12:53 AM 37.9 °F 34.4 °F 17.1 °F 43% 29.94 in 10.0 mi WNW 4.6 mph - N/A   Clear
1:53 AM 37.0 °F 32.4 °F 19.0 °F 48% 29.95 in 10.0 mi West 5.8 mph - N/A   Clear
2:53 AM 34.0 °F 29.8 °F 18.0 °F 52% 29.96 in 10.0 mi WSW 4.6 mph - N/A   Clear
3:53 AM 32.0 °F 26.4 °F 19.0 °F 59% 29.98 in 10.0 mi WSW 5.8 mph - N/A   Clear
4:53 AM 33.1 °F 27.7 °F 19.0 °F 56% 29.99 in 10.0 mi WNW 5.8 mph - N/A   Overcast
5:53 AM 32.0 °F 24.8 °F 16.0 °F 52% 30.02 in 10.0 mi West 8.1 mph - N/A   Overcast
6:53 AM 30.0 °F 21.7 °F 10.9 °F 45% 30.04 in 10.0 mi West 9.2 mph - N/A   Clear
7:53 AM 28.0 °F 20.0 °F 10.9 °F 49% 30.07 in 10.0 mi West 8.1 mph - N/A   Clear
8:53 AM 30.0 °F 20.5 °F 8.1 °F 40% 30.11 in 10.0 mi NW 11.5 mph - N/A   Partly Cloudy
9:53 AM 30.9 °F 21.2 °F 10.0 °F 42% 30.14 in 10.0 mi West 12.7 mph 17.3 mph N/A   Clear
10:53 AM 33.1 °F 24.4 °F 8.1 °F 35% 30.15 in 10.0 mi NNW 11.5 mph 19.6 mph N/A   Clear
11:53 AM 34.0 °F 26.0 °F 12.0 °F 40% 30.13 in 10.0 mi West 10.4 mph 16.1 mph N/A   Clear
12:53 PM 36.0 °F 28.0 °F 12.0 °F 37% 30.10 in 10.0 mi West 11.5 mph - N/A   Clear
1:53 PM 37.9 °F 29.6 °F 10.9 °F 33% 30.07 in 10.0 mi WNW 13.8 mph - N/A   Clear
2:53 PM 39.9 °F 33.9 °F 12.9 °F 33% 30.07 in 10.0 mi West 9.2 mph 19.6 mph N/A   Clear
3:53 PM 41.0 °F 34.7 °F 15.1 °F 35% 30.06 in 10.0 mi West 10.4 mph - N/A   Clear
4:53 PM 39.9 °F 32.1 °F 14.0 °F 35% 30.08 in 10.0 mi WSW 13.8 mph - N/A   Clear
5:53 PM 37.0 °F 31.6 °F 15.1 °F 41% 30.08 in 10.0 mi WSW 6.9 mph - N/A   Clear
6:53 PM 33.1 °F - 16.0 °F 50% 30.09 in 10.0 mi Calm Calm - N/A   Clear
7:53 PM 34.0 °F 31.0 °F 16.0 °F 48% 30.09 in 10.0 mi SSW 3.5 mph - N/A   Clear
8:53 PM 33.1 °F 28.7 °F 15.1 °F 48% 30.07 in 10.0 mi SSW 4.6 mph - N/A   Clear
9:53 PM 33.1 °F 26.1 °F 15.1 °F 48% 30.07 in 10.0 mi SW 8.1 mph - N/A   Clear
10:53 PM 32.0 °F 23.6 °F 17.1 °F 54% 30.09 in 10.0 mi WSW 10.4 mph - N/A   Clear
11:53 PM 32.0 °F 25.6 °F 16.0 °F 52% 30.06 in 10.0 mi SW 6.9 mph - N/A   Clear